Location: Peterborough
(44.3091°N, 78.3197°W)
Time: 04:06:54
(UTC-04:00)

Tiros 1 - Pass Details

Date: 06 April 2023
Orbit: 627 x 661 km, 48.4° (Epoch: 09 June)

Event Time Altitude Azimuth Distance (km) Brightness Sun altitude
Rises 02:37:03 0° 242° (WSW) 2,954 - -36.1°
Reaches altitude 10° 02:39:22 10° 241° (WSW) 2,051 - -35.9°
Maximum altitude 02:44:07 82° 155° (SSE) 666 - -35.6°
Exits shadow 02:47:53 16° 69° (ENE) 1,684 9.7 -35.2°
Drops below altitude 10° 02:48:55 10° 68° (ENE) 2,074 10.3 -35.1°
Sets 02:51:16 0° 68° (ENE) 2,991 11.2 -34.9°
